Location: Pedholt
(56.0260°N, 10.2097°E)
Time: 20:41:23
(UTC+00:00)

SR - Pass Details

Date: 04 August 2021
Orbit: 581 x 873 km, 66.7° (Epoch: 27 September)

Event Time Altitude Azimuth Distance (km) Brightness Sun altitude
Rises 09:50:50 0° 300° (WNW) 3,286 ? 47.2°
Reaches altitude 10° 09:53:42 10° 313° (NW) 2,304 ? 47.4°
Maximum altitude 09:58:07 27° 10° (N) 1,391 ? 47.7°
Drops below altitude 10° 10:02:14 10° 68° (ENE) 2,135 ? 48.0°
Sets 10:04:48 0° 81° (E) 2,998 ? 48.2°
